Terminal Aerodrome Forecast
Issued by NWS St Louis, MO

Home | Current Version | Previous Version | Text Only | Print | Product List | Glossary On
Versions: 1 2 3 4 5 6 7 8 9 10 11 12 13 14 15 16 17 18 19
000
FTUS43 KLSX 141700
TAFCOU
TAF
KCOU 141722Z 1418/1518 16006KT P6SM SCT060
      TEMPO 1418/1422 BKN060
     FM151100 17006KT P6SM VCSH BKN050
     FM151500 19007KT 5SM -SHRA VCTS BKN040CB=

USA.gov is the U.S. government's official web portal to all federal, state and local government web resources and services.